| time (UTC) | temp F | wind direction | speed knots | gust knots | rain 1hr in | rain 24hr in | rain mn in | humidity % | barometer mb |
| 20260506211500 | 45 | 277 | 6.1 | 13.0 | 0.00 | 0.00 | 0.00 | 47 | 1017.6 |
| 20260506204628 | 45 | 238 | 2.6 | 8.7 | 0.00 | 0.00 | 0.00 | 50 | 1018.0 |
| 20260506203057 | 43 | 317 | 6.1 | 11.3 | 0.00 | 0.00 | 0.00 | 50 | 1018.0 |
| 20260506201557 | 44 | 331 | 3.5 | 11.3 | 0.00 | 0.00 | 0.00 | 52 | 1018.1 |
| 20260506200056 | 44 | 273 | 3.5 | 13.0 | 0.00 | 0.00 | 0.00 | 50 | 1018.1 |
| 20260506194604 | 43 | 306 | 5.2 | 8.7 | 0.00 | 0.00 | 0.00 | 51 | 1018.2 |
| 20260506193058 | 42 | 290 | 5.2 | 11.3 | 0.00 | 0.00 | 0.00 | 51 | 1018.2 |
| 20260506191554 | 42 | 276 | 6.1 | 12.2 | 0.00 | 0.00 | 0.00 | 51 | 1018.2 |
| 20260506190053 | 42 | 300 | 8.7 | 13.9 | 0.00 | 0.00 | 0.00 | 51 | 1018.3 |
| 20260506184553 | 43 | 283 | 4.3 | 11.3 | 0.00 | 0.00 | 0.00 | 51 | 1018.2 |
| 20260506183059 | 42 | 321 | 5.2 | 13.0 | 0.00 | 0.00 | 0.00 | 50 | 1018.2 |
| 20260506181551 | 42 | 250 | 6.1 | 11.3 | 0.00 | 0.00 | 0.00 | 50 | 1018.4 |
| 20260506180052 | 42 | 298 | 7.0 | 12.2 | 0.00 | 0.00 | 0.00 | 49 | 1018.2 |
| 20260506174549 | 42 | 277 | 5.2 | 13.9 | 0.00 | 0.00 | 0.00 | 51 | 1018.3 |
| 20260506173050 | 42 | 323 | 6.1 | 12.2 | 0.00 | 0.00 | 0.00 | 50 | 1018.4 |
| 20260506171554 | 42 | 309 | 5.2 | 12.2 | 0.00 | 0.00 | 0.00 | 51 | 1018.4 |
| 20260506170047 | 41 | 312 | 6.1 | 20.9 | 0.00 | 0.00 | 0.00 | 51 | 1018.7 |
| 20260506164544 | 41 | 317 | 7.8 | 16.5 | 0.00 | 0.00 | 0.00 | 51 | 1018.7 |
| 20260506163043 | 40 | 288 | 6.1 | 12.2 | 0.00 | 0.00 | 0.00 | 52 | 1018.7 |
| 20260506161539 | 40 | 292 | 6.1 | 13.0 | 0.00 | 0.00 | 0.00 | 52 | 1018.8 |
| 20260506160037 | 40 | 304 | 7.0 | 13.0 | 0.00 | 0.00 | 0.00 | 52 | 1018.6 |
| 20260506154537 | 40 | 288 | 6.1 | 13.9 | 0.00 | 0.00 | 0.00 | 52 | 1018.5 |
| 20260506153035 | 40 | 325 | 3.5 | 15.6 | 0.00 | 0.00 | 0.00 | 53 | 1018.5 |
| 20260506151537 | 40 | 293 | 4.3 | 11.3 | 0.00 | 0.00 | 0.00 | 53 | 1018.4 |
| 20260506150033 | 40 | 317 | 3.5 | 11.3 | 0.00 | 0.00 | 0.00 | 55 | 1018.5 |
| 20260506144530 | 39 | 289 | 5.2 | 9.6 | 0.00 | 0.00 | 0.00 | 55 | 1018.6 |
| 20260506143028 | 39 | 243 | 5.2 | 10.4 | 0.00 | 0.00 | 0.00 | 55 | 1018.5 |
| 20260506141528 | 39 | 293 | 3.5 | 11.3 | 0.00 | 0.00 | 0.00 | 55 | 1018.5 |
| 20260506140029 | 38 | 311 | 5.2 | 9.6 | 0.00 | 0.00 | 0.00 | 55 | 1018.4 |
| 20260506134525 | 38 | 268 | 6.1 | 11.3 | 0.00 | 0.00 | 0.00 | 56 | 1018.3 |
| 20260506133040 | 38 | 330 | 4.3 | 11.3 | 0.00 | 0.00 | 0.00 | 58 | 1018.3 |
| 20260506131529 | 38 | 283 | 3.5 | 11.3 | 0.00 | 0.00 | 0.00 | 59 | 1018.1 |
| 20260506130024 | 38 | 306 | 6.1 | 11.3 | 0.00 | 0.00 | 0.00 | 58 | 1017.9 |
| 20260506124520 | 38 | 298 | 7.0 | 11.3 | 0.00 | 0.00 | 0.00 | 58 | 1017.7 |
| 20260506123018 | 38 | 290 | 2.6 | 8.7 | 0.00 | 0.00 | 0.00 | 61 | 1017.6 |
| 20260506121514 | 37 | 315 | 2.6 | 5.2 | 0.00 | 0.00 | 0.00 | 62 | 1017.3 |
| 20260506120018 | 36 | 288 | 3.5 | 7.8 | 0.00 | 0.00 | 0.00 | 64 | 1017.2 |
| 20260506114506 | 35 | 306 | 2.6 | 5.2 | 0.00 | 0.00 | 0.00 | 67 | 1016.8 |
| 20260506113001 | 34 | 293 | 0.9 | 3.5 | 0.00 | 0.00 | 0.00 | 71 | 1016.6 |
| 20260506111607 | 33 | 293 | 0.9 | 2.6 | 0.00 | 0.00 | 0.00 | 72 | 1016.5 |
| 20260506110058 | 32 | 285 | 1.7 | 3.5 | 0.00 | 0.00 | 0.00 | 73 | 1016.7 |
| 20260506104559 | 32 | 277 | 0.0 | 2.6 | 0.00 | 0.00 | 0.00 | 72 | 1016.8 |
| 20260506103100 | 32 | 294 | 0.0 | 1.7 | 0.00 | 0.00 | 0.00 | 70 | 1016.8 |
| 20260506101552 | 33 | 295 | 0.0 | 1.7 | 0.00 | 0.00 | 0.00 | 69 | 1016.4 |
| 20260506100053 | 34 | 295 | 0.0 | 2.6 | 0.00 | 0.00 | 0.00 | 67 | 1016.3 |
| 20260506094548 | 34 | 296 | 0.9 | 3.5 | 0.00 | 0.00 | 0.00 | 67 | 1016.3 |
| 20260506093046 | 34 | 296 | 0.9 | 2.6 | 0.00 | 0.00 | 0.00 | 66 | 1016.2 |
| 20260506091545 | 34 | 295 | 0.9 | 1.7 | 0.00 | 0.00 | 0.00 | 65 | 1016.3 |
| 20260506090043 | 35 | 295 | 1.7 | 3.5 | 0.00 | 0.00 | 0.00 | 65 | 1016.4 |
| 20260506084543 | 35 | 298 | 1.7 | 2.6 | 0.00 | 0.00 | 0.00 | 65 | 1016.1 |
| 20260506083039 | 35 | 300 | 0.9 | 2.6 | 0.00 | 0.00 | 0.00 | 64 | 1015.8 |
| 20260506081537 | 35 | 300 | 0.9 | 3.5 | 0.00 | 0.00 | 0.00 | 62 | 1015.9 |
| 20260506073033 | 37 | 340 | 1.7 | 7.0 | 0.00 | 0.00 | 0.00 | 59 | 1015.5 |
| 20260506071527 | 37 | 326 | 2.6 | 5.2 | 0.00 | 0.00 | 0.00 | 59 | 1015.5 |
| 20260506061519 | 38 | 327 | 3.5 | 7.8 | 0.00 | 0.00 | 0.00 | 55 | 1015.5 |
| 20260506044505 | 40 | 323 | 2.6 | 8.7 | 0.00 | 0.00 | 0.00 | 54 | 1014.9 |
| 20260506043004 | 41 | 331 | 5.2 | 10.4 | 0.00 | 0.00 | 0.00 | 54 | 1014.8 |
| 20260506041505 | 41 | 333 | 3.5 | 7.0 | 0.00 | 0.00 | 0.00 | 54 | 1014.7 |
| 20260506040004 | 42 | 314 | 2.6 | 7.0 | 0.00 | 0.00 | 0.00 | 53 | 1014.8 |
| 20260506034505 | 42 | 321 | 3.5 | 7.0 | 0.00 | 0.00 | 0.00 | 53 | 1014.7 |
| 20260506033002 | 42 | 313 | 3.5 | 11.3 | 0.00 | 0.00 | 0.00 | 51 | 1014.6 |
| 20260506031600 | 43 | 338 | 4.3 | 8.7 | 0.00 | 0.00 | 0.00 | 50 | 1014.5 |
| 20260506030100 | 44 | 346 | 2.6 | 9.6 | 0.00 | 0.00 | 0.00 | 51 | 1014.3 |
| 20260506024600 | 44 | 317 | 2.6 | 13.0 | 0.00 | 0.00 | 0.00 | 49 | 1014.1 |
| 20260506023100 | 45 | 331 | 7.0 | 13.0 | 0.00 | 0.00 | 0.00 | 46 | 1013.7 |
| 20260506021606 | 45 | 315 | 5.2 | 9.6 | 0.00 | 0.00 | 0.00 | 46 | 1013.6 |
| 20260506020052 | 45 | 314 | 5.2 | 12.2 | 0.00 | 0.00 | 0.00 | 45 | 1013.4 |
| 20260506014550 | 46 | 355 | 4.3 | 11.3 | 0.00 | 0.00 | 0.00 | 44 | 1013.1 |
| 20260506013048 | 46 | 319 | 6.1 | 15.6 | 0.00 | 0.00 | 0.00 | 43 | 1012.9 |
| 20260506011546 | 47 | 325 | 8.7 | 15.6 | 0.00 | 0.00 | 0.00 | 42 | 1012.7 |
| 20260506010055 | 48 | 323 | 8.7 | 15.6 | 0.00 | 0.00 | 0.00 | 42 | 1012.6 |
| 20260506004549 | 49 | 327 | 6.1 | 11.3 | 0.00 | 0.00 | 0.00 | 40 | 1012.5 |
| 20260506003043 | 49 | 5 | 7.0 | 13.9 | 0.00 | 0.00 | 0.00 | 40 | 1012.3 |
| 20260506001546 | 49 | 320 | 7.8 | 16.5 | 0.00 | 0.00 | 0.00 | 39 | 1012.2 |
| 20260506000042 | 49 | 315 | 4.3 | 15.6 | 0.00 | 0.00 | 0.00 | 39 | 1012.1 |
| 20260505234601 | 49 | 340 | 2.6 | 14.8 | 0.00 | 0.00 | 0.00 | 39 | 1011.9 |
| 20260505233043 | 51 | 259 | 6.1 | 13.9 | 0.00 | 0.00 | 0.00 | 37 | 1011.8 |
| 20260505231541 | 50 | 298 | 5.2 | 13.9 | 0.00 | 0.00 | 0.00 | 38 | 1011.9 |
| 20260505230039 | 52 | 257 | 4.3 | 14.8 | 0.00 | 0.00 | 0.00 | 37 | 1011.8 |
| 20260505224539 | 50 | 265 | 7.0 | 16.5 | 0.00 | 0.00 | 0.00 | 39 | 1011.9 |
| 20260505223040 | 50 | 338 | 4.3 | 12.2 | 0.00 | 0.00 | 0.00 | 40 | 1011.9 |
| 20260505221539 | 50 | 281 | 3.5 | 11.3 | 0.00 | 0.00 | 0.00 | 40 | 1011.8 |
| 20260505220041 | 50 | 298 | 7.0 | 17.4 | 0.00 | 0.00 | 0.00 | 40 | 1011.9 |
| 20260505214559 | 49 | 351 | 6.1 | 14.8 | 0.00 | 0.00 | 0.00 | 39 | 1011.9 |
| 20260505213037 | 49 | 276 | 8.7 | 18.2 | 0.00 | 0.00 | 0.00 | 38 | 1012.0 |